Location: Kawakawa
(35.3830°S, 174.0670°E)
Time: 20:56:07
(UTC+13:00)

A-11 Canister half - Pass Details

Date: 09 December 2019
Orbit: 1525 x 1684 km, 47.3° (Epoch: 28 January)

Event Time Altitude Azimuth Distance (km) Brightness Sun altitude
Rises 23:31:59 0° 245° (WSW) 4,693 12.3 -26.8°
Reaches altitude 10° 23:35:16 10° 238° (WSW) 3,717 11.7 -27.1°
Maximum altitude 23:44:07 44° 168° (SSE) 2,062 9.9 -27.9°
Drops below altitude 10° 23:53:10 10° 98° (E) 3,797 10.9 -28.6°
Sets 23:56:33 0° 91° (E) 4,802 11.4 -28.8°
